FW4339 Weather Reports


Display with metric or nautical units.
time (UTC)temp
F
wind
direction
speed
MPH
gust
MPH
rain 1hr
in
rain 24hr
in
rain mn
in
humidity
%
barometer
mb
20260506101542 71 0.0 0.0 0.00 0.00 0.00 51 1014.8
20260506100043 71 0.0 0.0 0.00 0.00 0.00 52 1014.9
20260506094538 71 0.0 0.0 0.00 0.00 0.00 51 1014.9
20260506091530 69 0.0 0.0 0.00 0.00 0.00 55 1015.0
20260506090035 69 0.0 0.0 0.00 0.00 0.00 57 1015.0
20260506084523 69 0.0 0.0 0.00 0.00 0.00 61 1015.0
20260506081518 67 0.0 0.0 0.00 0.00 0.00 64 1014.8
20260506071505 65 0.0 0.0 0.00 0.00 0.00 71 1014.6
20260506070107 64 0.0 0.0 0.00 0.00 0.00 73 1014.6
20260506061550 63 0.0 0.0 0.00 0.00 0.00 75 1014.6
20260506044533 59 0.0 0.0 0.00 0.00 0.00 78 1014.2
20260506043127 59 0.0 0.0 0.00 0.00 0.00 77 1014.1
20260506041527 59 0.0 0.0 0.00 0.00 0.00 77 1014.0
20260506040040 59 0.0 0.0 0.00 0.00 0.00 76 1013.9
20260506034524 58 0.0 0.0 0.00 0.00 0.00 76 1013.7
20260506033122 59 0.0 0.0 0.00 0.00 0.00 75 1013.6
20260506031520 59 0.0 0.0 0.00 0.00 0.00 76 1013.5
20260506030021 58 0.0 0.0 0.00 0.00 0.00 77 1013.5
20260506024527 58 0.0 0.0 0.00 0.00 0.00 77 1013.4
20260506023120 58 0.0 0.0 0.00 0.00 0.00 77 1013.3
20260506021538 58 0.0 0.0 0.00 0.00 0.00 78 1013.3
20260506020018 58 0.0 0.0 0.00 0.00 0.00 77 1013.4
20260506014523 58 0.0 0.0 0.00 0.00 0.00 77 1013.4
20260506013117 58 0.0 0.0 0.00 0.00 0.00 77 1013.4
20260506011523 58 0.0 0.0 0.00 0.00 0.00 77 1013.4
20260506010015 58 0.0 0.0 0.00 0.00 0.00 79 1013.5
20260506004512 59 0.0 0.0 0.00 0.00 0.00 79 1013.5
20260506003118 59 0.0 0.0 0.00 0.00 0.00 79 1013.5
20260506001513 59 0.0 0.0 0.00 0.00 0.00 79 1013.6
20260506000009 59 0.0 0.0 0.00 0.00 0.00 79 1013.7
20260505234512 60 0.0 0.0 0.00 0.00 0.00 78 1013.7
20260505233106 60 0.0 0.0 0.00 0.00 0.00 74 1013.7
20260505231507 61 0.0 0.0 0.00 0.00 0.00 71 1013.8
20260505230005 61 0.0 0.0 0.00 0.00 0.00 69 1014.0
20260505224503 61 0.0 0.0 0.00 0.00 0.00 68 1014.0
20260505223113 61 0.0 0.0 0.00 0.00 0.00 67 1014.2
20260505221603 61 0.0 0.0 0.00 0.00 0.00 66 1014.2
20260505220059 62 0.0 0.0 0.00 0.00 0.00 64 1014.2
20260505214602 62 0.0 0.0 0.00 0.00 0.00 62 1014.3
20260505213055 63 0.0 0.0 0.00 0.00 0.00 59 1014.2
20260505211622 63 0.0 0.0 0.00 0.00 0.00 55 1014.3
20260505210056 64 0.0 0.0 0.00 0.00 0.00 52 1014.3
20260505204556 64 0.0 0.0 0.00 0.00 0.00 49 1014.3
20260505203118 64 0.0 0.0 0.00 0.00 0.00 49 1014.5
20260505201556 64 0.0 0.0 0.00 0.00 0.00 49 1014.6
20260505200055 64 0.0 0.0 0.00 0.00 0.00 51 1014.5
20260505194555 63 0.0 0.0 0.00 0.00 0.00 54 1014.5
20260505193054 63 0.0 0.0 0.00 0.00 0.00 55 1014.5
20260505191557 64 0.0 0.0 0.00 0.00 0.00 53 1014.6
20260505190056 63 0.0 0.0 0.00 0.00 0.00 54 1014.6
20260505184555 64 0.0 0.0 0.00 0.00 0.00 56 1014.4
20260505183057 65 0.0 0.0 0.00 0.00 0.00 50 1014.1
20260505181549 65 0.0 0.0 0.00 0.00 0.00 50 1014.1
20260505180055 65 0.0 0.0 0.00 0.00 0.00 54 1014.2
20260505174548 65 0.0 0.0 0.00 0.00 0.00 56 1014.1
20260505173049 66 0.0 0.0 0.00 0.00 0.00 53 1013.9
20260505171548 66 0.0 0.0 0.00 0.00 0.00 53 1013.9
20260505170048 66 0.0 0.0 0.00 0.00 0.00 52 1013.8
20260505164547 67 0.0 0.0 0.00 0.00 0.00 53 1013.8
20260505163047 67 0.0 0.0 0.00 0.00 0.00 53 1013.9
20260505161546 68 0.0 0.0 0.00 0.00 0.00 53 1013.9
20260505153050 70 0.0 0.0 0.00 0.00 0.00 41 1014.0
20260505151547 70 0.0 0.0 0.00 0.00 0.00 40 1013.9
20260505124540 83 0.0 0.0 0.00 0.00 0.00 26 1014.0
20260505123039 82 0.0 0.0 0.00 0.00 0.00 26 1013.9
20260505121640 80 0.0 0.0 0.00 0.00 0.00 27 1014.0
20260505120038 79 0.0 0.0 0.00 0.00 0.00 29 1014.2
20260505114538 82 0.0 0.0 0.00 0.00 0.00 27 1014.2
20260505113041 83 0.0 0.0 0.00 0.00 0.00 26 1014.2
20260505111542 82 0.0 0.0 0.00 0.00 0.00 26 1014.3